Date String (YYYY-MM-DD hh:mm:ss) UTC,Instrument flags,Ambient pressure (hPa),Sample flow (lpm),Bypass flow (lpm),Sample temperature (°C),Ambient temperature (°C),ASC tube jacket temperature (°C),LED temperature (°C),Box temperature (°C),Sample RH (%),Span deviation,Mass concentration (μg/m³),Mass concentration (μg/m³),Mass concentration (μg/m³)
DateTimeUTC,F1_M11,P_M11,Q1_M11,Q2_M11,T1_M11,T2_M11,T3_M11,T4_M11,T5_M11,U1_M11,ZSPAN_M11,X0_M11,X2_M11,X1_M11
2022-05-02 23:00:00,,0824.1,5.00,0.00,23.5,22.9,00.0,32.4,25.4,21.2,0000.0,0005.13,0003.43,0003.31
2022-05-02 23:01:00,,0824.1,5.00,0.00,23.6,22.9,00.0,32.4,25.4,21.2,0000.0,0005.08,0003.44,0003.31
2022-05-02 23:02:00,,0824.1,4.99,0.00,23.6,22.9,00.0,32.4,25.5,21.4,0000.0,0005.10,0003.45,0003.32
2022-05-02 23:03:00,,0824.1,5.01,0.00,23.6,22.9,00.0,32.4,25.5,21.3,0000.0,0005.07,0003.46,0003.33
2022-05-02 23:04:00,,0824.1,5.00,0.00,23.6,22.9,00.0,32.4,25.5,21.3,0000.0,0005.01,0003.46,0003.34
2022-05-02 23:05:00,,0824.1,5.00,0.00,23.6,22.9,00.0,32.5,25.5,21.3,0000.0,0005.00,0003.46,0003.34
2022-05-02 23:06:00,,0824.0,5.00,0.00,23.6,22.9,00.0,32.5,25.5,21.2,0000.0,0005.04,0003.47,0003.35
2022-05-02 23:07:00,,0824.1,4.99,0.00,23.6,22.9,00.0,32.5,25.5,21.3,0000.0,0004.92,0003.49,0003.37
2022-05-02 23:08:00,,0824.1,5.00,0.00,23.7,22.9,00.0,32.5,25.5,21.3,0000.0,0004.91,0003.50,0003.38
2022-05-02 23:09:00,,0824.1,5.00,0.00,23.7,22.9,00.0,32.5,25.5,21.4,0000.0,0004.86,0003.50,0003.39
2022-05-02 23:10:00,,0824.0,4.99,0.00,23.7,23.0,00.0,32.5,25.5,21.3,0000.0,0004.90,0003.52,0003.41
2022-05-02 23:11:00,,0824.1,5.01,0.00,23.7,23.0,00.0,32.5,25.5,21.2,0000.0,0004.91,0003.53,0003.41
2022-05-02 23:12:00,,0824.1,4.99,0.00,23.7,23.0,00.0,32.5,25.5,21.4,0000.0,0005.03,0003.54,0003.41
2022-05-02 23:13:00,,0824.1,5.01,0.00,23.7,23.0,00.0,32.6,25.5,21.5,0000.0,0005.13,0003.56,0003.43
2022-05-02 23:14:00,,0824.1,5.00,0.00,23.7,23.0,00.0,32.6,25.5,21.7,0000.0,0005.20,0003.57,0003.43
2022-05-02 23:15:00,,0824.0,5.00,0.00,23.7,23.0,00.0,32.6,25.6,21.4,0000.0,0005.48,0003.59,0003.44
2022-05-02 23:16:00,,0824.0,5.00,0.00,23.7,23.0,00.0,32.6,25.6,21.6,0000.0,0005.63,0003.62,0003.45
2022-05-02 23:17:00,,0824.0,5.02,0.00,23.7,23.0,00.0,32.6,25.6,21.4,0000.0,0005.69,0003.64,0003.46
2022-05-02 23:18:00,,0824.0,4.99,0.00,23.8,23.0,00.0,32.6,25.6,21.6,0000.0,0005.66,0003.64,0003.46
2022-05-02 23:19:00,,0824.1,5.00,0.00,23.8,23.0,00.0,32.6,25.6,22.0,0000.0,0005.69,0003.65,0003.46
2022-05-02 23:20:00,,0824.1,5.01,0.00,23.8,23.0,00.0,32.6,25.6,21.7,0000.0,0005.71,0003.65,0003.46
2022-05-02 23:21:00,,0824.1,4.99,0.00,23.8,23.1,00.0,32.6,25.6,21.2,0000.0,0005.68,0003.64,0003.45
2022-05-02 23:22:00,,0824.1,5.01,0.00,23.8,23.1,00.0,32.6,25.6,21.0,0000.0,0005.81,0003.67,0003.46
2022-05-02 23:23:00,,0824.0,5.00,0.00,23.8,23.1,00.0,32.7,25.6,21.1,0000.0,0005.76,0003.67,0003.47
2022-05-02 23:24:00,,0824.1,4.99,0.00,23.8,23.1,00.0,32.7,25.6,21.0,0000.0,0006.17,0003.65,0003.46
2022-05-02 23:25:00,,0824.1,5.01,0.00,23.8,23.1,00.0,32.7,25.7,21.1,0000.0,0006.04,0003.63,0003.46
2022-05-02 23:26:00,,0824.1,5.00,0.00,23.8,23.1,00.0,32.7,25.6,21.3,0000.0,0005.74,0003.61,0003.46
2022-05-02 23:27:00,,0824.1,5.01,0.00,23.9,23.1,00.0,32.7,25.7,21.4,0000.0,0005.70,0003.61,0003.46
2022-05-02 23:28:00,,0824.1,5.00,0.00,23.9,23.1,00.0,32.7,25.7,21.6,0000.0,0005.72,0003.61,0003.46
2022-05-02 23:29:00,,0824.0,4.98,0.00,23.9,23.1,00.0,32.7,25.7,21.5,0000.0,0005.71,0003.61,0003.46
2022-05-02 23:30:00,,0824.1,5.01,0.00,23.9,23.1,00.0,32.7,25.7,21.4,0000.0,0005.67,0003.61,0003.46
2022-05-02 23:31:00,,0824.1,4.99,0.00,23.9,23.1,00.0,32.7,25.7,21.1,0000.0,0005.82,0003.63,0003.48
2022-05-02 23:32:00,,0824.1,5.00,0.00,23.9,23.1,00.0,32.8,25.7,21.0,0000.0,0005.87,0003.65,0003.49
2022-05-02 23:33:00,,0824.1,5.01,0.00,23.9,23.1,00.0,32.8,25.7,20.9,0000.0,0005.81,0003.65,0003.51
2022-05-02 23:34:00,,0824.0,4.99,0.00,23.9,23.2,00.0,32.8,25.8,20.9,0000.0,0005.75,0003.66,0003.52
2022-05-02 23:35:00,,0824.0,4.99,0.00,23.9,23.2,00.0,32.8,25.9,20.9,0000.0,0005.28,0003.68,0003.54
2022-05-02 23:36:00,,0824.1,5.01,0.00,23.9,23.2,00.0,32.8,25.9,20.8,0000.0,0005.32,0003.69,0003.55
2022-05-02 23:37:00,,0824.1,4.99,0.00,24.0,23.2,00.0,32.8,25.9,20.9,0000.0,0005.33,0003.70,0003.56
2022-05-02 23:38:00,,0824.1,4.99,0.00,24.0,23.2,00.0,32.8,25.9,20.9,0000.0,0005.22,0003.69,0003.57
2022-05-02 23:39:00,,0824.1,5.01,0.00,24.0,23.2,00.0,32.8,25.9,20.9,0000.0,0005.13,0003.67,0003.57
2022-05-02 23:40:00,,0824.1,4.99,0.00,24.0,23.2,00.0,32.8,25.9,20.9,0000.0,0005.10,0003.66,0003.57
2022-05-02 23:41:00,,0824.1,4.99,0.00,24.0,23.2,00.0,32.9,25.9,21.0,0000.0,0005.11,0003.67,0003.57
2022-05-02 23:42:00,,0824.0,5.00,0.00,24.0,23.2,00.0,32.9,25.9,21.0,0000.0,0005.01,0003.66,0003.56
2022-05-02 23:43:00,,0824.1,4.99,0.00,24.0,23.2,00.0,32.9,25.9,21.4,0000.0,0005.05,0003.66,0003.56
2022-05-02 23:44:00,,0824.1,5.00,0.00,24.0,23.2,00.0,32.9,25.9,21.4,0000.0,0005.10,0003.65,0003.54
2022-05-02 23:45:00,,0824.1,5.01,0.00,24.0,23.2,00.0,32.9,25.9,21.3,0000.0,0005.08,0003.64,0003.52
2022-05-02 23:46:00,,0824.1,4.99,0.00,24.0,23.3,00.0,32.9,25.9,21.2,0000.0,0005.06,0003.63,0003.52
2022-05-02 23:47:00,,0824.1,4.99,0.00,24.0,23.3,00.0,32.9,25.9,21.0,0000.0,0005.10,0003.63,0003.51
2022-05-02 23:48:00,,0824.1,5.00,0.00,24.0,23.3,00.0,32.9,25.9,21.3,0000.0,0005.18,0003.63,0003.51
2022-05-02 23:49:00,,0824.0,5.00,0.00,24.1,23.3,00.0,32.9,25.9,21.1,0000.0,0005.17,0003.63,0003.51
2022-05-02 23:50:00,,0824.0,5.00,0.00,24.1,23.3,00.0,32.9,25.9,21.0,0000.0,0005.13,0003.62,0003.51
2022-05-02 23:51:00,,0824.0,5.01,0.00,24.1,23.3,00.0,32.9,26.0,21.2,0000.0,0005.16,0003.63,0003.52
2022-05-02 23:52:00,,0824.1,4.99,0.00,24.1,23.3,00.0,33.0,26.0,21.2,0000.0,0005.18,0003.63,0003.52
2022-05-02 23:53:00,,0824.1,5.01,0.00,24.1,23.3,00.0,33.0,26.0,21.0,0000.0,0005.18,0003.63,0003.53
2022-05-02 23:54:00,,0824.0,4.99,0.00,24.1,23.3,00.0,33.0,26.0,20.9,0000.0,0005.17,0003.64,0003.54
2022-05-02 23:55:00,,0824.0,4.99,0.00,24.1,23.3,00.0,33.0,26.0,20.8,0000.0,0005.12,0003.65,0003.56
2022-05-02 23:56:00,,0824.0,5.00,0.00,24.1,23.3,00.0,33.0,26.0,20.9,0000.0,0005.10,0003.65,0003.56
2022-05-02 23:57:00,,0823.9,5.01,0.00,24.1,23.3,00.0,33.0,26.0,21.0,0000.0,0005.07,0003.65,0003.56
2022-05-02 23:58:00,,0823.9,4.99,0.00,24.1,23.3,00.0,33.0,26.0,21.2,0000.0,0005.08,0003.66,0003.57
2022-05-02 23:59:00,,0823.9,4.99,0.00,24.2,23.3,00.0,33.0,26.0,21.2,0000.0,0005.05,0003.67,0003.58
